Regional Weather Roundup
Issued by NWS

Home | Current Version | Previous Version | Text Only | Print | Product List | Glossary On
Versions: 1 2 3 4 5 6 7 8 9 10 11 12 13 14 15 16 17 18 19 20 21 22 23 24 25 26 27 28 29 30 31 32 33 34 35 36 37 38 39 40 41 42 43 44 45 46 47 48 49 50
000
ASUS43 KLMK 160910
RWRKY
KENTUCKY REGIONAL WEATHER ROUNDUP
NATIONAL WEATHER SERVICE LOUISVILLE KY
500 AM EDT TUE SEP 16 2014

NOTE "FAIR" INDICATES FEW OR NO CLOUDS BELOW 12,000 FEET
WITH NO SIGNIFICANT WEATHER AND/OR OBSTRUCTIONS TO VISIBILITY.

KYZ001>023-026-027-061>063-070>075-161000-
WESTERN AND SOUTH CENTRAL KENTUCKY

CITY           SKY/WX    TMP DP  RH WIND       PRES   REMARKS
PADUCAH        CLOUDY    67  62  84 N10       30.12R
HENDERSON      CLOUDY    61  57  88 N7        30.13R
OWENSBORO      CLOUDY    64  61  90 N12       30.11R
HOPKINSVILLE   MOCLDY    67  67 100 W3        30.09F
BOWLING GREEN  CLOUDY    68  62  81 W3        30.09S
GLASGOW        CLOUDY    66  64  94 CALM      30.09S
$$

KYZ024-025-028>034-038-045-046-053-161000-
NORTH CENTRAL KENTUCKY

CITY           SKY/WX    TMP DP  RH WIND       PRES   REMARKS
LOUISVILLE/SDF DRIZZLE   64  60  87 N10       30.08R
LOUISVILLE/LOU CLOUDY    63  61  93 N7        30.09R FOG
FORT KNOX      CLOUDY    64  62  94 W7        30.07R
$$

KYZ035>037-039>044-047>052-055>060-089>105-161000-
NORTHEAST KENTUCKY

CITY           SKY/WX    TMP DP  RH WIND       PRES   REMARKS
LEXINGTON      LGT RAIN  64  61  90 CALM      30.08S
COVINGTON      CLOUDY    59  56  89 NE6       30.10S FOG
FRANKFORT      CLOUDY    62  60  93 CALM      30.07S
$$

KYZ054-064>069-076>088-106>120-161000-
SOUTHEAST KENTUCKY

CITY           SKY/WX    TMP DP  RH WIND       PRES   REMARKS
JACKSON        LGT RAIN  62  60  93 CALM      30.10S
LONDON         CLOUDY    67  61  81 W6        30.10S
SOMERSET       NOT AVBL
MIDDLESBORO    CLOUDY    63  62  97 CALM      30.10S
MONTICELLO     MOSUNNY   66  63  90 CALM      30.11S
$$



USA.gov is the U.S. government's official web portal to all federal, state and local government web resources and services.